NSIGHT-1 (42726 NORAD) Tracking and Keplerian Element Data

This shows tracking and keplerian element data for the satellite.

Feedback or suggestion? Click here.




ElementValue
Catalog42726
NameNSIGHT-1
Epoch Orbit8414
Epoch Day319.98460699
Epoch Year2018
RAAN320.6142
Inclination51.6387
Eccentricity0.0005886
Argument of Perigee78.4479
Mean Anonmoly281.7177
Mean Motion15.64624196
Decay Rate0.00010631
L11 42726U 98067MF 18319.98460699 .00010631 00000-0 11310-3 0 9994
L22 42726 51.6387 320.6142 0005886 78.4479 281.7177 15.64624196 84141

Live tracking and technical data element details for NSIGHT-1 (NORAD 42726). NSIGHT-1 can be tracked NOW for your location showing map with azimuth and elevation plus other details from your city location.

Track the satellite on the map from your city or location and see movement details for azimuth, elevation, latitude, longitude, range, height, and movement on the map or in text.







IsCatalogInMostPopularTable: catalog: 42726, numindb: 143
Update: records affected: 1



GetName: 42726 NSIGHT-1

Hit Count: updated at: Fri, 16 Nov 2018 06:12:21 GMT